Theta_e
292 292 293 293 293 294 295 295 296 300 301 301 301 301 301 302 302 298 293 296 290 285 286 288 288 285 284 285 281 282 282 283 283 279 279 278 278 280 280 282 282 282 281 281 283 279 279 292 289 288 290 291 293 292
292 292 292 293 293 293 294 294 294 299 300 300 300 300 301 301 302 300 290 295 296 287 286 290 291 291 291 289 287 283 285 282 286 282 281 282 279 281 279 275 284 279 284 282 282 281 290 291 291 294 290 288 289 290
291 292 292 292 293 293 293 294 294 296 299 300 300 300 301 301 301 300 292 293 291 285 285 284 285 290 291 292 295 284 285 287 285 290 285 283 278 282 278 279 281 285 287 283 283 286 290 290 291 291 290 288 287 287
291 291 292 292 292 293 293 293 294 296 294 299 299 300 300 301 301 300 291 294 291 286 280 281 287 286 290 291 291 292 290 290 289 288 284 282 279 285 281 282 282 285 286 284 285 287 289 290 291 291 291 290 289 288
290 290 291 292 292 292 293 293 294 295 294 299 299 299 300 300 300 298 294 293 293 286 279 278 280 286 289 289 288 289 288 287 285 283 282 281 285 283 284 282 281 285 283 281 280 287 287 287 290 289 289 289 288 286
290 290 291 291 292 292 292 293 294 294 294 298 298 297 299 299 299 293 283 291 294 291 282 276 282 281 284 286 287 287 287 286 285 283 282 285 287 284 279 278 284 286 288 289 286 289 288 290 289 289 288 288 284 283
289 290 291 291 292 293 294 294 294 295 296 297 295 299 299 299 295 286 284 288 294 292 282 277 277 279 282 283 283 284 286 285 284 283 283 283 283 285 281 277 283 285 286 287 287 286 285 287 288 286 286 287 284 283
290 291 291 291 292 291 292 294 294 295 295 296 296 298 298 298 293 287 291 294 293 285 283 273 272 275 281 279 278 284 281 283 283 283 284 282 283 283 278 282 285 285 285 283 284 286 287 283 282 282 282 283 283 282
290 290 290 291 291 292 292 294 295 296 296 296 297 296 294 288 284 285 293 296 292 285 277 274 271 271 279 279 281 282 283 277 284 280 281 281 280 277 281 282 283 283 281 283 280 278 277 277 279 279 279 280 281 279
289 290 291 291 292 292 293 293 293 294 296 296 291 284 280 285 293 294 286 282 283 283 278 274 273 273 278 276 277 277 279 276 274 278 280 278 277 281 278 271 268 268 269 271 273 274 272 274 275 275 275 276 277 276
289 289 290 292 292 292 293 293 293 294 293 285 281 279 285 293 285 281 277 276 277 275 277 273 275 274 279 275 274 278 276 276 271 274 275 273 273 275 264 263 263 263 264 265 265 267 268 269 272 272 270 270 271 271
290 291 291 291 292 292 292 293 294 287 285 284 283 286 284 280 277 274 272 272 273 270 271 273 273 277 276 278 275 275 273 272 269 273 273 270 273 258 257 258 259 260 260 260 262 263 263 264 265 267 266 265 265 265
290 290 291 291 291 291 291 292 292 291 287 283 279 276 275 272 270 268 265 265 267 266 271 273 273 276 277 279 275 273 270 269 271 271 270 272 256 256 255 256 256 258 259 260 261 261 260 260 260 261 261 261 261 260
290 290 290 290 290 290 290 291 291 288 281 276 272 268 268 267 267 265 266 266 264 268 272 274 274 276 276 275 275 271 272 270 266 264 268 256 253 252 254 255 255 255 256 258 259 259 258 258 257 257 258 259 260 258
290 290 290 289 290 290 290 291 286 279 277 272 272 266 261 257 254 253 254 259 257 259 267 271 272 277 275 273 274 271 266 266 267 267 259 254 253 253 253 254 254 255 255 256 256 257 256 256 255 255 256 258 258 258
286 287 285 288 289 288 286 281 273 273 262 262 256 262 255 260 257 254 253 255 258 260 264 267 271 272 271 270 269 269 266 265 265 255 253 253 253 253 253 254 254 254 254 254 255 255 255 254 254 255 255 255 256 256
282 275 285 284 282 281 280 270 268 260 258 257 252 250 250 251 251 250 251 254 257 259 266 266 268 266 267 264 263 258 264 256 251 251 252 252 251 252 252 253 253 254 254 254 255 255 256 256 257 256 254 254 255 254
270 276 284 283 275 272 265 265 260 258 253 253 253 250 250 250 251 250 251 254 256 258 260 262 263 262 265 264 262 252 250 250 251 251 252 251 252 252 253 253 253 254 254 254 255 255 256 256 255 254 255 255 255 254
278 278 280 280 273 263 261 261 258 252 252 253 253 253 251 251 252 252 252 254 255 255 256 258 261 260 255 249 248 248 249 251 251 252 252 251 252 251 253 253 254 254 253 254 254 254 254 254 255 256 256 256 254 255
275 276 277 275 270 260 257 257 257 254 251 253 252 250 250 250 250 248 250 252 253 253 251 252 249 247 248 249 249 249 250 252 252 250 251 252 253 253 253 254 254 254 254 254 254 255 254 254 254 254 254 255 254 252
267 268 269 265 259 257 255 254 254 252 252 251 252 251 250 249 247 246 248 251 249 246 246 247 247 248 248 248 248 249 250 251 253 252 251 251 253 253 253 254 254 254 253 253 252 251 251 251 252 252 252 251 251 252
261 267 257 260 257 255 254 255 255 254 252 249 250 249 246 245 245 245 249 247 245 245 246 247 247 245 244 244 245 247 249 249 251 253 254 253 252 252 252 252 252 251 251 251 251 250 250 251 251 251 251 251 251 251
260 259 254 252 252 251 250 253 250 249 248 247 246 245 245 243 247 251 244 244 245 248 246 245 244 242 244 244 244 246 247 248 250 250 251 250 251 251 251 251 252 251 250 249 251 250 250 250 250 250 250 250 250 250
256 247 245 244 246 243 246 245 248 247 247 246 246 243 243 244 249 246 242 240 243 245 244 244 246 247 245 245 245 245 247 250 250 250 251 250 249 248 249 249 249 249 250 250 249 249 249 248 248 248 248 248 247 247
248 240 242 238 242 242 241 241 242 245 243 244 246 245 245 246 245 242 243 244 244 243 244 243 245 246 244 243 246 246 248 251 250 248 249 250 248 248 248 248 247 247 247 249 248 248 247 246 246 246 245 245 245 245
237 238 238 236 239 238 238 237 238 239 242 244 242 243 243 246 245 242 241 242 242 241 241 243 246 246 246 247 248 248 248 249 251 249 249 250 251 251 250 250 249 248 246 246 246 246 245 245 244 243 244 244 243 242
237 236 239 241 240 240 239 240 241 240 240 240 242 244 245 240 240 242 244 246 243 242 244 245 246 249 248 247 247 247 247 248 249 249 249 248 248 248 250 250 249 248 244 243 243 243 243 243 243 243 242 243 242 242
238 236 237 239 238 236 234 235 235 237 240 243 242 238 238 241 241 241 244 248 247 246 247 247 247 248 248 248 248 248 247 248 248 248 248 247 247 247 246 246 245 248 243 242 243 242 240 241 241 241 242 242 244 245
238 238 238 237 238 239 237 236 235 240 243 241 240 240 239 241 241 243 248 249 249 248 247 247 247 247 247 247 247 247 248 248 249 249 249 249 248 248 244 242 242 242 242 241 244 249 245 243 243 244 244 244 245 245
240 239 238 238 238 237 239 239 238 241 244 245 245 245 244 245 244 247 247 248 248 247 248 248 247 248 248 248 249 248 247 247 247 248 247 245 245 242 240 241 241 241 240 238 241 242 244 244 243 241 242 243 243 243
243 240 239 240 240 242 242 242 243 243 245 244 244 243 243 244 247 248 247 247 247 246 246 246 247 247 247 248 247 247 248 246 242 242 240 239 238 238 239 240 241 239 237 238 239 239 240 241 240 240 241 241 242 243
243 239 242 244 243 243 242 242 242 242 241 242 242 243 244 244 245 247 248 246 245 245 247 247 247 248 248 248 247 246 247 243 241 242 241 242 241 241 241 241 239 237 238 240 240 240 241 240 241 242 242 242 243 243
239 244 244 245 245 244 241 239 242 242 242 240 241 239 239 241 245 246 245 245 246 247 247 246 245 242 242 242 243 241 243 241 240 247 249 249 247 246 243 241 242 242 242 242 243 243 242 242 242 243 243 243 243 244
Wind_Speed
27 30 30 30 31 31 31 28 31 35 31 29 30 29 28 29 30 20 5 14 11 6 5 9 8 7 3 6 7 4 4 3 5 8 7 7 8 9 11 14 8 7 5 3 8 9 9 9 2 5 8 6 10 7
28 27 28 32 34 35 34 29 29 36 31 30 30 30 29 29 30 27 4 11 9 4 1 3 8 6 10 8 5 4 2 5 5 5 4 3 6 4 12 16 16 12 9 6 5 6 10 5 13 11 3 4 4 6
25 27 27 31 34 37 36 32 29 30 31 34 30 30 29 29 32 28 6 10 5 4 2 3 7 10 5 7 6 6 2 5 4 3 4 2 8 3 8 12 15 10 10 10 13 17 12 5 3 2 1 3 5 3
26 26 30 31 31 31 32 32 32 31 21 32 29 29 28 30 31 29 6 9 7 4 4 4 1 5 5 9 11 11 10 3 1 2 6 6 7 6 9 8 8 7 3 6 10 10 7 5 5 3 4 3 5 5
27 26 28 31 27 25 28 30 32 27 25 35 27 27 30 29 31 18 7 10 10 8 5 3 1 5 4 9 11 11 13 11 6 5 5 7 5 7 5 4 11 13 18 12 15 14 7 8 4 3 6 5 5 6
25 27 25 24 23 24 24 32 31 27 31 28 24 23 30 31 28 7 3 7 13 5 4 4 1 2 4 8 9 10 10 8 5 5 7 8 5 6 5 6 8 12 10 14 14 14 10 10 5 5 6 6 4 3
26 28 25 26 20 22 27 27 21 29 26 25 18 34 30 30 12 5 4 5 19 7 4 4 3 0 2 3 3 4 6 5 5 4 6 5 5 8 6 11 15 12 15 15 6 3 7 7 7 4 5 4 4 3
23 23 18 17 16 13 6 14 17 18 20 21 26 28 27 25 15 5 2 16 18 5 4 5 2 1 6 4 4 5 5 4 6 4 4 7 4 5 7 16 15 16 13 8 12 11 13 1 2 4 2 2 7 7
14 16 11 13 10 12 10 14 18 18 29 22 26 25 13 3 4 5 13 29 3 4 5 4 7 5 5 4 3 4 4 5 5 7 6 3 10 9 7 11 13 13 9 13 3 4 3 6 5 5 4 5 7 5
4 14 11 13 12 13 15 16 16 16 25 26 10 3 3 4 21 21 7 4 3 3 2 3 2 4 6 5 4 2 2 4 4 5 3 6 12 15 2 7 8 10 11 9 4 6 3 5 6 3 4 1 3 3
12 5 8 16 14 14 14 15 17 19 18 3 3 3 2 25 3 2 3 3 2 3 3 3 4 7 4 5 4 4 2 1 3 3 5 3 6 1 12 10 10 9 9 7 6 8 7 7 3 4 3 3 4 5
11 15 14 14 15 15 16 17 19 6 4 6 8 6 4 3 3 5 4 3 3 5 3 6 5 3 3 2 3 3 3 1 7 3 4 5 1 7 11 12 12 11 10 9 8 8 9 8 7 2 2 5 4 5
10 11 14 15 13 11 11 14 18 20 10 6 4 4 3 1 4 6 6 2 3 4 5 5 5 4 3 3 2 3 6 7 2 4 6 3 4 9 10 10 10 9 8 6 6 6 6 6 5 3 4 4 6 7
12 12 11 11 10 9 7 15 22 10 6 3 2 5 3 3 2 3 4 5 2 2 5 4 5 4 3 6 3 5 4 3 4 4 7 3 7 8 9 8 7 9 7 7 5 3 4 5 7 7 6 4 7 8
21 20 17 14 16 15 17 14 14 6 4 4 3 4 3 3 5 3 0 3 4 2 0 2 1 4 3 3 5 3 3 5 6 5 1 2 7 8 8 8 7 7 7 5 5 4 6 6 6 7 9 7 8 9
12 12 13 20 17 17 17 14 9 4 6 5 10 4 1 3 3 3 3 3 4 3 1 1 3 4 4 3 4 6 3 5 1 1 2 5 6 7 8 7 7 6 4 3 4 5 6 7 6 8 10 10 10 10
12 4 11 11 13 19 18 8 5 9 6 6 4 4 2 4 4 1 1 2 4 2 3 2 5 6 2 2 3 3 4 2 1 2 4 5 6 7 6 5 5 4 4 5 6 6 7 7 7 11 11 10 11 11
3 5 11 12 6 7 5 6 6 6 9 5 4 2 3 3 2 2 2 3 2 2 1 2 2 3 4 4 3 2 1 1 2 2 2 3 3 3 2 3 4 5 5 6 7 7 8 9 10 7 9 8 9 9
12 12 18 14 8 7 5 6 5 7 5 3 4 3 3 3 4 3 3 3 2 1 1 2 3 3 2 1 1 0 1 1 1 1 2 3 3 3 2 4 5 6 5 7 8 7 7 9 7 6 5 5 7 7
9 20 17 18 10 6 7 5 4 6 3 2 3 3 3 3 1 3 4 5 3 3 5 4 2 2 2 1 1 1 3 3 1 1 1 3 2 3 5 3 4 5 6 8 7 8 6 7 7 7 6 7 7 7
11 10 16 8 6 8 6 3 5 3 4 4 2 2 3 3 3 4 4 5 4 4 2 2 1 1 2 2 2 2 4 3 2 3 2 1 2 2 3 3 5 5 6 5 5 7 7 6 5 5 6 6 6 6
4 13 5 9 7 6 6 6 3 2 4 2 3 3 3 3 3 3 3 5 3 1 0 0 0 1 2 2 2 2 4 1 4 3 5 5 3 2 3 3 4 5 5 5 4 5 4 4 4 5 5 4 5 4
8 8 7 10 8 9 2 4 6 4 5 1 2 4 3 2 1 1 4 1 1 1 1 2 3 3 2 2 2 3 3 3 3 3 4 4 5 4 4 4 4 5 5 3 3 4 4 5 5 4 3 3 3 3
12 11 9 7 8 3 4 7 4 4 4 4 4 3 2 1 0 3 2 2 2 2 2 2 1 2 2 4 2 2 3 2 4 5 3 5 5 4 3 4 4 3 3 3 3 3 4 3 3 3 3 2 2 2
12 13 8 9 5 6 8 6 6 5 4 2 3 1 2 2 2 2 1 1 2 2 3 2 2 2 3 1 0 1 3 1 4 5 2 4 5 4 3 3 3 2 2 1 2 2 2 1 2 1 0 1 3 4
13 5 6 3 4 5 2 4 4 1 1 3 1 2 2 2 1 3 2 2 2 1 1 1 1 1 2 1 2 1 2 3 2 4 2 1 1 1 3 3 2 1 1 1 2 2 1 1 1 3 3 3 4 4
8 5 4 1 2 2 4 3 2 4 4 3 2 3 1 1 3 3 1 0 0 2 1 1 2 1 2 2 2 2 2 2 3 3 3 2 2 2 1 1 2 2 3 2 2 2 2 3 3 3 5 5 5 5
3 2 4 5 4 2 4 3 3 2 2 3 1 2 2 3 4 2 1 1 1 1 2 2 3 2 3 3 2 2 2 2 3 3 3 2 2 1 2 2 1 5 2 2 2 2 3 4 4 5 6 7 7 5
4 3 3 5 4 4 3 2 2 2 1 1 1 1 2 2 2 1 1 1 1 1 1 2 1 1 2 2 1 0 0 1 3 3 2 1 1 2 3 2 0 1 1 3 7 8 8 8 8 7 8 7 7 7
3 1 3 2 4 3 3 3 3 2 2 1 1 1 1 2 3 2 2 1 2 2 1 0 1 2 2 2 1 2 3 4 4 3 3 3 4 1 2 2 3 3 3 3 5 5 8 6 7 4 5 6 6 7
1 1 3 3 2 2 2 2 2 2 2 1 1 2 2 2 2 3 3 3 2 2 2 3 3 3 3 3 3 2 3 3 4 6 4 3 3 3 4 4 4 3 2 3 4 4 6 6 6 8 9 11 11 10
3 4 2 2 0 0 2 2 1 1 2 1 2 1 1 1 2 2 4 4 3 4 6 4 3 4 4 4 2 2 3 2 3 4 7 5 5 5 4 4 3 3 4 5 6 7 9 10 9 10 11 14 14 13
1 1 0 1 1 1 3 3 3 3 2 2 2 2 1 2 4 3 1 4 4 5 5 5 4 3 4 4 4 3 5 4 5 8 8 9 10 10 5 4 4 5 7 9 9 10 11 13 12 13 14 14 15 16
Wind_Direction
276 271 272 268 265 265 260 260 256 251 225 223 221 219 218 214 208 198 168 183 179 207 199 200 197 183 136 195 204 159 144 194 173 204 201 203 234 224 234 250 240 217 281 235 216 219 224 23 340 242 347 315 308 278
277 273 268 271 272 261 262 254 258 256 221 220 217 218 215 212 206 195 178 180 176 171 176 206 220 212 211 201 181 193 212 162 208 211 226 225 218 210 219 243 233 248 222 247 193 280 267 173 236 277 218 234 288 327
288 286 277 280 266 262 255 248 249 251 240 214 214 215 212 209 203 196 164 156 163 138 173 189 202 213 185 201 187 214 205 227 217 221 209 249 243 173 226 234 254 240 252 259 276 263 259 224 255 174 199 250 278 271
280 277 271 285 272 253 244 238 238 236 250 221 212 212 211 207 200 193 161 163 155 105 210 214 44 212 197 202 207 219 226 168 94 215 222 231 240 206 243 254 243 249 159 229 260 275 270 207 206 217 271 285 290 271
288 292 291 284 262 247 239 237 231 233 238 227 210 211 203 205 195 191 170 172 166 171 169 183 258 225 171 172 198 208 215 218 216 231 219 225 225 219 241 262 253 235 243 245 255 274 256 279 229 212 268 271 260 275
290 290 290 288 257 242 242 240 232 229 241 218 208 228 202 191 188 163 142 188 182 148 128 170 351 197 160 199 202 197 202 214 217 223 230 231 218 206 226 233 234 211 216 227 239 234 224 256 226 237 256 254 263 271
293 291 286 282 253 245 255 208 216 208 205 204 207 196 182 178 171 174 161 152 169 136 138 149 204 87 162 136 191 209 197 208 209 227 227 237 193 215 227 233 235 235 240 241 249 122 279 243 253 188 244 242 155 142
296 297 272 244 245 237 232 175 196 205 211 203 179 180 174 174 115 121 184 162 153 120 134 145 182 176 177 172 204 192 207 212 215 233 228 211 195 214 241 244 247 243 252 242 233 204 247 256 260 236 233 193 213 214
310 307 261 242 223 171 144 175 174 184 174 171 161 163 166 120 124 162 171 163 158 139 127 148 145 182 162 182 189 186 214 225 205 216 228 223 210 209 215 225 232 231 214 247 192 199 212 243 262 226 219 233 233 198
288 299 274 220 187 179 163 160 146 158 171 162 127 113 117 128 128 131 144 149 168 140 104 112 140 139 168 173 189 179 200 239 225 224 128 215 248 235 320 33 24 9 2 358 316 266 236 237 222 205 205 207 264 164
327 202 203 156 149 150 150 152 160 157 121 69 128 96 80 131 94 74 130 123 105 112 124 135 173 134 200 147 182 212 178 232 260 240 216 230 253 210 12 20 15 7 356 356 325 313 333 322 284 186 170 107 104 111
47 109 114 118 124 129 134 143 130 87 136 157 110 89 88 109 117 136 112 104 158 178 160 162 178 138 146 129 142 179 196 180 235 141 210 241 164 17 4 354 351 354 350 344 354 345 342 331 331 357 132 102 72 72
78 99 104 107 108 119 131 140 110 117 92 53 59 89 114 258 122 144 143 91 136 165 182 164 135 121 118 183 167 160 208 224 103 205 221 241 19 358 350 342 335 336 343 350 353 1 359 310 336 352 85 80 98 89
73 84 82 92 99 109 120 142 131 114 78 76 127 108 126 111 126 140 139 137 85 154 137 133 132 149 165 176 168 221 212 148 202 231 231 26 347 322 323 331 334 337 343 344 344 5 66 10 32 25 35 63 104 99
49 60 65 82 77 71 68 138 77 47 47 62 27 73 69 94 47 59 44 90 17 341 1 144 88 165 147 212 206 148 190 236 217 231 11 316 326 319 319 332 333 333 334 345 356 21 51 57 56 55 43 57 83 91
25 54 55 60 68 74 73 63 32 60 58 58 34 105 20 82 83 48 15 82 5 338 262 273 127 153 185 214 194 209 190 217 173 26 336 323 330 333 333 335 333 332 342 2 44 63 72 66 78 76 64 54 58 70
53 29 13 67 72 61 47 68 52 47 60 54 55 35 37 48 65 78 336 39 329 271 147 137 161 199 88 110 238 202 217 57 334 318 326 328 319 320 322 346 348 6 27 54 70 76 84 97 95 79 77 60 65 64
46 310 35 23 46 50 41 39 79 65 70 43 76 5 58 51 83 35 341 346 335 52 344 142 115 140 197 202 226 148 201 243 240 263 307 312 314 329 348 32 42 38 45 60 69 76 76 76 77 82 84 87 84 71
49 34 26 30 67 85 64 32 52 88 63 93 100 70 79 85 65 28 352 341 40 3 37 61 111 185 174 102 135 98 311 291 281 358 9 351 11 0 47 64 72 77 67 68 72 71 63 61 66 67 70 73 76 75
44 30 16 32 54 71 62 25 58 81 80 96 59 44 72 64 10 19 360 9 34 20 44 48 85 130 148 147 197 232 268 297 134 94 14 23 20 33 50 63 78 83 79 68 64 71 73 62 49 53 58 65 75 69
26 349 5 42 49 56 77 25 51 101 123 82 164 65 66 37 34 22 3 342 59 31 74 64 94 266 292 263 268 263 269 252 230 199 194 140 51 73 75 58 62 63 68 63 72 69 61 71 63 55 66 70 71 67
343 10 43 11 68 51 76 23 84 102 67 123 65 61 49 38 13 1 309 44 59 38 106 190 317 293 349 352 300 301 290 34 58 85 91 118 125 110 75 72 92 82 70 65 74 82 73 57 63 65 66 68 64 64
20 29 46 13 67 41 346 356 73 17 88 98 47 62 35 30 318 187 70 67 211 301 233 230 240 213 175 296 36 1 21 85 97 99 98 91 78 69 79 67 80 102 104 71 63 77 75 54 55 69 67 56 48 55
32 46 35 38 28 42 351 23 20 47 42 41 54 50 2 314 238 52 79 276 265 319 1 319 149 72 19 35 41 347 349 69 100 87 88 116 112 80 71 74 67 59 63 94 80 74 59 51 38 56 47 51 38 19
69 358 31 8 2 38 35 19 4 50 69 21 88 60 330 16 75 65 239 262 321 332 320 335 80 127 135 227 295 349 353 90 132 117 57 100 115 112 95 89 79 52 343 102 85 86 88 52 37 31 3 321 323 331
68 319 55 2 358 61 353 63 33 38 25 72 18 285 8 93 150 246 244 245 245 233 288 14 24 69 46 31 132 108 36 353 116 107 108 68 69 152 155 146 136 132 52 44 147 161 183 214 262 315 315 322 307 305
59 346 327 32 128 67 39 14 5 62 57 42 345 342 52 114 246 251 246 54 190 241 203 326 301 7 118 107 86 51 21 10 50 84 99 93 72 23 302 177 179 122 145 172 195 201 249 295 300 295 284 279 263 274
136 52 65 314 42 41 101 47 45 36 1 344 326 37 159 194 228 250 342 43 104 83 83 50 37 60 98 96 104 122 91 89 94 110 123 114 109 123 111 106 98 147 156 192 219 212 233 253 263 268 274 281 286 262
43 316 78 25 36 46 59 121 237 265 334 95 52 292 266 239 229 252 315 0 149 176 151 151 116 111 108 117 143 127 97 217 218 195 203 225 251 206 194 204 259 288 290 285 274 260 227 227 237 246 254 260 268 275
328 105 80 52 65 360 263 170 234 261 251 259 271 261 260 258 240 200 230 232 208 211 180 122 168 207 187 193 183 216 205 218 233 222 197 218 223 232 197 227 242 248 251 248 277 298 314 317 313 311 293 281 267 267
281 50 71 58 107 247 243 269 255 242 254 257 242 222 255 299 282 204 202 197 183 160 180 205 213 217 214 205 207 231 260 203 220 232 230 229 237 241 243 240 239 237 236 257 268 264 272 277 267 270 273 273 274 270
6 44 51 97 230 123 17 4 328 350 323 50 304 300 297 299 271 215 188 145 159 208 225 219 216 234 208 224 224 250 251 206 203 218 218 227 237 241 242 246 234 212 231 248 248 251 251 249 262 264 269 272 272 271
336 286 59 79 115 79 23 347 16 343 15 2 343 355 332 295 251 278 279 224 195 197 205 209 219 215 219 216 215 231 229 225 242 255 256 253 253 254 243 230 229 227 234 241 245 247 251 254 260 264 265 266 270 272